TAP876 LPPT-LIPZ

Flight info

Callsign TAP876
Flight time 2h 28m
Altitude 36000
Route ORVED DCT UREDI DCT PONEN DCT SEROX DCT VILAR/N0436F370 DCT KARES/N0433F360 DCT BISES DCT BCN DCT SALON DCT AGENA DCT BODEQ DCT LUMAS DCT NEVIX DCT ODIXU DCT ADITA DCT RAPED DCT PIGOS DCT EKSID DCT NOSTA DCT EGHIN DCT DORAV DCT LOGDI/N0436F370 DCT LURUT/N0433F380 DCT TODNO DCT BOA/N0425F320 DCT SUKOM Q125 NIMUM Z43 OTGIG
Aircraft E190/M-SDE3GILORVW/S

Departure

Time 2026-05-06 13:50
Airport Lisbon Humberto Delgado Airport (LPPT)

Arrival

Time 2026-05-06 16:18
Airport Venice Marco Polo Airport (LIPZ)
Time Latitude Longitude Altitude Speed Heading
2026-05-06 13:09 38.77862 -9.13293 340 ft 0 kts 76°
2026-05-06 13:39 38.77862 -9.13296 340 ft 2 kts 76°
2026-05-06 13:39 38.77858 -9.13316 349 ft 2 kts 77°
2026-05-06 13:40 38.77854 -9.13337 354 ft 2 kts 78°
2026-05-06 13:40 38.77852 -9.13356 351 ft 2 kts 89°
2026-05-06 13:40 38.77857 -9.13373 355 ft 1 kts 169°
2026-05-06 13:40 38.77859 -9.13373 355 ft 0 kts 168°
2026-05-06 13:44 38.77843 -9.13368 354 ft 5 kts 168°
2026-05-06 13:44 38.77808 -9.13359 345 ft 10 kts 168°
2026-05-06 13:44 38.77722 -9.13353 337 ft 15 kts 198°
2026-05-06 13:45 38.77623 -9.13405 344 ft 15 kts 203°
2026-05-06 13:45 38.77471 -9.13513 346 ft 11 kts 221°
2026-05-06 13:45 38.77403 -9.13531 349 ft 11 kts 173°
2026-05-06 13:46 38.77323 -9.13515 346 ft 13 kts 185°
2026-05-06 13:46 38.77280 -9.13596 348 ft 11 kts 257°
2026-05-06 13:46 38.77265 -9.13689 350 ft 11 kts 258°
2026-05-06 13:46 38.77249 -9.13782 351 ft 11 kts 258°
2026-05-06 13:47 38.77211 -9.13856 354 ft 11 kts 208°
2026-05-06 13:47 38.77134 -9.13897 354 ft 13 kts 203°
2026-05-06 13:47 38.77040 -9.13949 352 ft 16 kts 202°
2026-05-06 13:47 38.76921 -9.14011 349 ft 20 kts 202°
2026-05-06 13:48 38.76780 -9.14087 347 ft 22 kts 202°
2026-05-06 13:48 38.76663 -9.14148 338 ft 19 kts 202°
2026-05-06 13:48 38.76600 -9.14256 336 ft 17 kts 288°
2026-05-06 13:48 38.76665 -9.14364 334 ft 15 kts 347°
2026-05-06 13:49 38.76714 -9.14351 335 ft 0 kts 21°
2026-05-06 13:49 38.76732 -9.14342 335 ft 14 kts 22°
2026-05-06 13:49 38.77051 -9.14170 349 ft 85 kts 23°
2026-05-06 13:50 38.77791 -9.13777 367 ft 146 kts 19°
2026-05-06 13:50 38.78814 -9.13227 824 ft 170 kts 18°
2026-05-06 13:50 38.79918 -9.12593 1802 ft 180 kts 20°
2026-05-06 13:50 38.81027 -9.11869 2461 ft 169 kts 23°
2026-05-06 13:51 38.82047 -9.11147 2977 ft 172 kts 26°
2026-05-06 13:51 38.83053 -9.10402 3210 ft 175 kts 26°
2026-05-06 13:51 38.84233 -9.09525 3341 ft 211 kts 27°
2026-05-06 13:51 38.85475 -9.08609 3286 ft 202 kts 27°
2026-05-06 13:52 38.86672 -9.07705 3208 ft 198 kts 27°
2026-05-06 13:52 38.87766 -9.06601 3101 ft 203 kts 41°
2026-05-06 13:52 38.88711 -9.05198 3532 ft 206 kts 49°
2026-05-06 13:52 38.89568 -9.03669 3999 ft 220 kts 52°
2026-05-06 13:53 38.90411 -9.01969 4478 ft 228 kts 56°
2026-05-06 13:53 38.91237 -9.00205 5165 ft 233 kts 57°
2026-05-06 13:53 38.92085 -8.98315 5583 ft 254 kts 60°
2026-05-06 13:53 38.92882 -8.96197 6100 ft 268 kts 64°
2026-05-06 13:54 38.93663 -8.94010 6795 ft 272 kts 64°
2026-05-06 13:54 38.94443 -8.91810 7450 ft 276 kts 64°
2026-05-06 13:54 38.95242 -8.89553 8107 ft 279 kts 65°
2026-05-06 13:54 38.96050 -8.87259 8740 ft 283 kts 65°
2026-05-06 13:55 38.96871 -8.84930 9413 ft 287 kts 65°
2026-05-06 13:55 38.97701 -8.82582 10063 ft 291 kts 65°
2026-05-06 13:55 38.98564 -8.80140 10331 ft 309 kts 65°
2026-05-06 13:55 38.99469 -8.77571 10767 ft 318 kts 65°
2026-05-06 13:56 39.00378 -8.74990 11349 ft 323 kts 65°
2026-05-06 13:56 39.01312 -8.72342 11933 ft 327 kts 65°
2026-05-06 13:56 39.02256 -8.69656 12509 ft 332 kts 65°
2026-05-06 13:56 39.03212 -8.66931 13114 ft 336 kts 65°
2026-05-06 13:57 39.04183 -8.64165 13696 ft 341 kts 65°
2026-05-06 13:57 39.05168 -8.61361 14234 ft 344 kts 65°
2026-05-06 13:57 39.06144 -8.58576 14821 ft 347 kts 65°
2026-05-06 13:57 39.07141 -8.55735 15391 ft 350 kts 65°
2026-05-06 13:58 39.08149 -8.52852 15961 ft 353 kts 65°
2026-05-06 13:58 39.09161 -8.49952 16548 ft 356 kts 65°
2026-05-06 13:58 39.10183 -8.47023 17087 ft 360 kts 65°
2026-05-06 13:58 39.11216 -8.44059 17632 ft 364 kts 65°
2026-05-06 13:59 39.12258 -8.41071 18184 ft 368 kts 65°
2026-05-06 13:59 39.13311 -8.38045 18719 ft 371 kts 65°
2026-05-06 13:59 39.14369 -8.35002 19239 ft 374 kts 65°
2026-05-06 13:59 39.15440 -8.31917 19806 ft 377 kts 65°
2026-05-06 14:00 39.16500 -8.28862 20327 ft 380 kts 65°
2026-05-06 14:00 39.17582 -8.25739 20832 ft 383 kts 65°
2026-05-06 14:00 39.18672 -8.22591 21315 ft 386 kts 65°
2026-05-06 14:00 39.19771 -8.19413 21794 ft 389 kts 66°
2026-05-06 14:01 39.20875 -8.16217 22243 ft 391 kts 66°
2026-05-06 14:01 39.21989 -8.12989 22694 ft 394 kts 66°
2026-05-06 14:01 39.23107 -8.09743 23135 ft 397 kts 66°
2026-05-06 14:01 39.24231 -8.06478 23565 ft 400 kts 66°
2026-05-06 14:02 39.25365 -8.03181 23955 ft 402 kts 66°
2026-05-06 14:02 39.26502 -7.99870 24358 ft 405 kts 66°
2026-05-06 14:02 39.27646 -7.96533 24766 ft 407 kts 66°
2026-05-06 14:02 39.28795 -7.93181 25152 ft 410 kts 66°
2026-05-06 14:03 39.29951 -7.89803 25520 ft 413 kts 66°
2026-05-06 14:03 39.31116 -7.86398 25870 ft 415 kts 66°
2026-05-06 14:03 39.32268 -7.83024 26207 ft 417 kts 66°
2026-05-06 14:03 39.33439 -7.79587 26532 ft 419 kts 66°
2026-05-06 14:04 39.34616 -7.76134 26852 ft 422 kts 66°
2026-05-06 14:04 39.35803 -7.72645 27164 ft 424 kts 66°
2026-05-06 14:04 39.36988 -7.69137 27468 ft 426 kts 67°
2026-05-06 14:04 39.38188 -7.65626 27773 ft 428 kts 63°
2026-05-06 14:05 39.39499 -7.62191 28073 ft 430 kts 64°
2026-05-06 14:05 39.40829 -7.58716 28372 ft 432 kts 63°
2026-05-06 14:05 39.42180 -7.55212 28690 ft 434 kts 63°
2026-05-06 14:05 39.43533 -7.51704 28984 ft 437 kts 63°
2026-05-06 14:06 39.44892 -7.48173 29287 ft 439 kts 63°
2026-05-06 14:06 39.46255 -7.44626 29573 ft 441 kts 63°
2026-05-06 14:06 39.47624 -7.41058 29848 ft 443 kts 63°
2026-05-06 14:06 39.49009 -7.37448 29865 ft 451 kts 63°
2026-05-06 14:07 39.50384 -7.33854 30126 ft 452 kts 63°
2026-05-06 14:07 39.51777 -7.30208 30393 ft 452 kts 63°
2026-05-06 14:07 39.53174 -7.26552 30651 ft 452 kts 63°
2026-05-06 14:07 39.54568 -7.22896 30905 ft 452 kts 63°
2026-05-06 14:08 39.55960 -7.19240 31159 ft 452 kts 63°
2026-05-06 14:08 39.57353 -7.15584 31399 ft 452 kts 63°
2026-05-06 14:08 39.58747 -7.11911 31646 ft 452 kts 63°
2026-05-06 14:08 39.60136 -7.08252 31889 ft 452 kts 63°
2026-05-06 14:09 39.61523 -7.04592 32120 ft 452 kts 63°
2026-05-06 14:09 39.62899 -7.00958 32354 ft 452 kts 63°
2026-05-06 14:09 39.64288 -6.97282 32599 ft 452 kts 63°
2026-05-06 14:09 39.65675 -6.93610 32851 ft 452 kts 63°
2026-05-06 14:10 39.67042 -6.89984 33098 ft 452 kts 63°
2026-05-06 14:10 39.68427 -6.86311 33357 ft 452 kts 63°
2026-05-06 14:10 39.69806 -6.82644 33596 ft 452 kts 63°
2026-05-06 14:10 39.71188 -6.78966 33841 ft 452 kts 63°
2026-05-06 14:11 39.72566 -6.75294 34057 ft 452 kts 63°
2026-05-06 14:11 39.73948 -6.71607 34231 ft 453 kts 63°
2026-05-06 14:11 39.76739 -6.64148 34233 ft 464 kts 63°
2026-05-06 14:12 39.79585 -6.56521 34264 ft 473 kts 63°
2026-05-06 14:12 39.82461 -6.48794 34303 ft 481 kts 63°
2026-05-06 14:13 39.85364 -6.40866 34333 ft 488 kts 65°
2026-05-06 14:13 39.87736 -6.32504 34454 ft 493 kts 71°
2026-05-06 14:14 39.88831 -6.28271 34593 ft 493 kts 71°
2026-05-06 14:14 39.89912 -6.24088 34734 ft 494 kts 71°
2026-05-06 14:14 39.91000 -6.19847 34895 ft 494 kts 71°
2026-05-06 14:14 39.92088 -6.15599 35046 ft 494 kts 71°
2026-05-06 14:15 39.93178 -6.11341 35208 ft 495 kts 71°
2026-05-06 14:15 39.94265 -6.07091 35362 ft 495 kts 71°
2026-05-06 14:15 39.95354 -6.02822 35510 ft 495 kts 71°
2026-05-06 14:15 39.96441 -5.98557 35663 ft 496 kts 71°
2026-05-06 14:16 39.97527 -5.94334 35781 ft 481 kts 69°
2026-05-06 14:16 39.98756 -5.90414 35860 ft 471 kts 65°
2026-05-06 14:16 40.01506 -5.82565 35926 ft 479 kts 64°
2026-05-06 14:17 40.04285 -5.74576 35937 ft 488 kts 69°
2026-05-06 14:17 40.06671 -5.66191 35948 ft 496 kts 70°
2026-05-06 14:18 40.09013 -5.57774 35931 ft 493 kts 70°
2026-05-06 14:18 40.11349 -5.49352 35942 ft 494 kts 70°
2026-05-06 14:19 40.13682 -5.40915 35932 ft 493 kts 70°
2026-05-06 14:19 40.16012 -5.32463 35939 ft 494 kts 70°
2026-05-06 14:20 40.18332 -5.24016 35935 ft 493 kts 70°
2026-05-06 14:20 40.20651 -5.15551 35941 ft 494 kts 70°
2026-05-06 14:21 40.22964 -5.07081 35955 ft 494 kts 70°
2026-05-06 14:21 40.25260 -4.98638 35945 ft 494 kts 70°
2026-05-06 14:22 40.27564 -4.90136 35949 ft 495 kts 70°
2026-05-06 14:22 40.29852 -4.81676 35950 ft 495 kts 70°
2026-05-06 14:23 40.32147 -4.73156 35946 ft 495 kts 70°
2026-05-06 14:23 40.34435 -4.64631 35957 ft 496 kts 70°
2026-05-06 14:24 40.36717 -4.56097 35936 ft 495 kts 70°
2026-05-06 14:24 40.38995 -4.47554 35952 ft 496 kts 70°
2026-05-06 14:25 40.41253 -4.39053 35951 ft 496 kts 70°
2026-05-06 14:25 40.43517 -4.30496 35953 ft 496 kts 70°
2026-05-06 14:26 40.45776 -4.21938 35947 ft 496 kts 70°
2026-05-06 14:26 40.48022 -4.13398 35956 ft 496 kts 70°
2026-05-06 14:27 40.50270 -4.04817 35963 ft 496 kts 71°
2026-05-06 14:27 40.52500 -3.96277 35961 ft 496 kts 71°
2026-05-06 14:28 40.54733 -3.87692 35976 ft 496 kts 71°
2026-05-06 14:28 40.56965 -3.79083 35965 ft 496 kts 71°
2026-05-06 14:29 40.58817 -3.71915 35972 ft 497 kts 71°
2026-05-06 14:29 40.61396 -3.61902 35971 ft 497 kts 71°
2026-05-06 14:30 40.63251 -3.54670 35969 ft 497 kts 71°
2026-05-06 14:30 40.65447 -3.46088 35970 ft 498 kts 71°
2026-05-06 14:31 40.67653 -3.37432 35961 ft 498 kts 71°
2026-05-06 14:31 40.69858 -3.28747 35964 ft 498 kts 71°
2026-05-06 14:32 40.72040 -3.20123 35949 ft 499 kts 71°
2026-05-06 14:32 40.74229 -3.11444 35955 ft 499 kts 71°
2026-05-06 14:33 40.76413 -3.02748 35947 ft 499 kts 71°
2026-05-06 14:33 40.78592 -2.94044 35956 ft 499 kts 71°
2026-05-06 14:34 40.80762 -2.85338 35954 ft 499 kts 71°
2026-05-06 14:34 40.82915 -2.76670 35957 ft 500 kts 71°
2026-05-06 14:35 40.85074 -2.67951 35952 ft 500 kts 71°
2026-05-06 14:35 40.87236 -2.59187 35961 ft 501 kts 71°
2026-05-06 14:36 40.89385 -2.50440 35955 ft 500 kts 71°
2026-05-06 14:36 40.91528 -2.41683 35960 ft 501 kts 72°
2026-05-06 14:37 40.93658 -2.32949 35962 ft 501 kts 72°
2026-05-06 14:37 40.95792 -2.24169 35965 ft 501 kts 72°
2026-05-06 14:38 40.97919 -2.15382 35963 ft 501 kts 72°
2026-05-06 14:38 41.00028 -2.06633 35961 ft 501 kts 72°
2026-05-06 14:39 41.02145 -1.97823 35965 ft 502 kts 72°
2026-05-06 14:39 41.04254 -1.89008 35966 ft 502 kts 72°
2026-05-06 14:40 41.06360 -1.80174 35965 ft 502 kts 72°
2026-05-06 14:40 41.08447 -1.71388 35965 ft 502 kts 72°
2026-05-06 14:41 41.10540 -1.62537 35966 ft 502 kts 72°
2026-05-06 14:41 41.12628 -1.53677 35963 ft 503 kts 72°
2026-05-06 14:42 41.14701 -1.44848 35977 ft 504 kts 72°
2026-05-06 14:42 41.16780 -1.35955 35966 ft 504 kts 72°
2026-05-06 14:43 41.18855 -1.27050 35984 ft 504 kts 73°
2026-05-06 14:43 41.20909 -1.18193 35971 ft 504 kts 73°
2026-05-06 14:44 41.22971 -1.09270 35981 ft 505 kts 73°
2026-05-06 14:45 41.26050 -0.95882 35967 ft 505 kts 73°
2026-05-06 14:45 41.28082 -0.86996 35967 ft 505 kts 73°
2026-05-06 14:46 41.30123 -0.78043 35967 ft 506 kts 73°
2026-05-06 14:46 41.32156 -0.69082 35964 ft 506 kts 73°
2026-05-06 14:47 41.34186 -0.60099 35962 ft 506 kts 74°
2026-05-06 14:47 41.35343 -0.50896 35960 ft 504 kts 90°
2026-05-06 14:48 41.35308 -0.41620 35956 ft 504 kts 92°
2026-05-06 14:48 41.35233 -0.32280 35963 ft 504 kts 92°
2026-05-06 14:49 41.35153 -0.22947 35946 ft 504 kts 92°
2026-05-06 14:49 41.35066 -0.13579 35952 ft 505 kts 93°
2026-05-06 14:50 41.34973 -0.04282 35947 ft 505 kts 93°
2026-05-06 14:50 41.34871 0.05088 35947 ft 505 kts 93°
2026-05-06 14:51 41.34761 0.14455 35947 ft 506 kts 93°
2026-05-06 14:51 41.34645 0.23773 35930 ft 506 kts 93°
2026-05-06 14:52 41.34520 0.33160 35941 ft 507 kts 93°
2026-05-06 14:52 41.34388 0.42535 35930 ft 507 kts 94°
2026-05-06 14:53 41.34247 0.51937 35928 ft 508 kts 94°
2026-05-06 14:53 41.34099 0.61336 35927 ft 508 kts 94°
2026-05-06 14:54 41.33944 0.70683 35919 ft 509 kts 94°
2026-05-06 14:54 41.33780 0.80102 35920 ft 509 kts 94°
2026-05-06 14:55 41.33609 0.89522 35925 ft 510 kts 94°
2026-05-06 14:55 41.33430 0.98954 35933 ft 510 kts 94°
2026-05-06 14:56 41.33243 1.08380 35926 ft 510 kts 94°
2026-05-06 14:56 41.33048 1.17824 35944 ft 511 kts 94°
2026-05-06 14:57 41.32847 1.27217 35927 ft 511 kts 94°
2026-05-06 14:57 41.32636 1.36688 35939 ft 511 kts 95°
2026-05-06 14:58 41.32418 1.46146 35936 ft 511 kts 95°
2026-05-06 14:58 41.32192 1.55594 35935 ft 511 kts 95°
2026-05-06 14:59 41.31986 1.64989 35936 ft 512 kts 92°
2026-05-06 14:59 41.32627 1.74448 35948 ft 515 kts 81°
2026-05-06 15:00 41.33846 1.83842 35942 ft 515 kts 82°
2026-05-06 15:00 41.35081 1.93184 35938 ft 515 kts 82°
2026-05-06 15:01 41.36318 2.02595 35948 ft 515 kts 82°
2026-05-06 15:01 41.37547 2.12005 35939 ft 516 kts 82°
2026-05-06 15:02 41.38760 2.21374 35947 ft 516 kts 82°
2026-05-06 15:02 41.39972 2.30792 35921 ft 515 kts 82°
2026-05-06 15:03 41.41177 2.40210 35940 ft 516 kts 82°
2026-05-06 15:03 41.42375 2.49644 35939 ft 515 kts 82°
2026-05-06 15:04 41.43564 2.59075 35952 ft 516 kts 83°
2026-05-06 15:04 41.44745 2.68502 35941 ft 515 kts 83°
2026-05-06 15:05 41.45913 2.77887 35947 ft 516 kts 83°
2026-05-06 15:05 41.47077 2.87316 35939 ft 515 kts 83°
2026-05-06 15:06 41.48237 2.96773 35943 ft 516 kts 83°
2026-05-06 15:06 41.49387 3.06210 35942 ft 516 kts 83°
2026-05-06 15:07 41.50530 3.15664 35950 ft 516 kts 83°
2026-05-06 15:07 41.51659 3.25065 35945 ft 516 kts 83°
2026-05-06 15:08 41.52788 3.34535 35947 ft 517 kts 83°
2026-05-06 15:08 41.53907 3.44008 35948 ft 517 kts 84°
2026-05-06 15:09 41.55245 3.53453 35957 ft 518 kts 81°
2026-05-06 15:09 41.56777 3.62856 35951 ft 518 kts 80°
2026-05-06 15:10 41.58309 3.72206 35958 ft 518 kts 80°
2026-05-06 15:10 41.59839 3.81621 35955 ft 518 kts 80°
2026-05-06 15:11 41.61366 3.91039 35962 ft 517 kts 80°
2026-05-06 15:11 41.62875 4.00382 35957 ft 517 kts 80°
2026-05-06 15:12 41.64388 4.09809 35961 ft 517 kts 81°
2026-05-06 15:12 41.65888 4.19214 35965 ft 517 kts 81°
2026-05-06 15:13 41.67383 4.28631 35961 ft 517 kts 81°
2026-05-06 15:13 41.68871 4.38059 35965 ft 518 kts 81°
2026-05-06 15:14 41.70350 4.47487 35961 ft 518 kts 81°
2026-05-06 15:14 41.71823 4.56930 35964 ft 518 kts 81°
2026-05-06 15:15 41.73559 4.66232 35959 ft 521 kts 71°
2026-05-06 15:15 41.77008 4.74783 35967 ft 523 kts 53°
2026-05-06 15:16 41.82086 4.81697 35963 ft 519 kts 34°
2026-05-06 15:16 41.88283 4.86356 35962 ft 511 kts 16°
2026-05-06 15:17 41.95117 4.88443 35960 ft 497 kts 358°
2026-05-06 15:17 42.00846 4.88618 35960 ft 495 kts 355°
2026-05-06 15:18 42.07752 4.89534 35965 ft 503 kts
2026-05-06 15:18 42.14621 4.91685 35952 ft 507 kts 10°
2026-05-06 15:19 42.21348 4.94461 35954 ft 513 kts 18°
2026-05-06 15:19 42.27943 4.98267 35953 ft 514 kts 19°
2026-05-06 15:20 42.34498 5.02106 35952 ft 514 kts 19°
2026-05-06 15:20 42.41049 5.05996 35944 ft 515 kts 22°
2026-05-06 15:21 42.47334 5.10602 35949 ft 517 kts 26°
2026-05-06 15:21 42.53626 5.15345 35942 ft 517 kts 26°
2026-05-06 15:22 42.59916 5.20095 35934 ft 516 kts 26°
2026-05-06 15:22 42.66194 5.24847 35936 ft 516 kts 26°
2026-05-06 15:23 42.72442 5.29586 35938 ft 516 kts 26°
2026-05-06 15:23 42.78684 5.34331 35937 ft 516 kts 26°
2026-05-06 15:24 42.84949 5.39104 35936 ft 516 kts 26°
2026-05-06 15:24 42.91228 5.43899 35936 ft 515 kts 26°
2026-05-06 15:25 42.97489 5.48692 35935 ft 515 kts 26°
2026-05-06 15:25 43.03752 5.53498 35931 ft 515 kts 26°
2026-05-06 15:26 43.09794 5.58678 35927 ft 519 kts 37°
2026-05-06 15:26 43.14730 5.65901 35925 ft 521 kts 56°
2026-05-06 15:27 43.18476 5.74383 35919 ft 521 kts 58°
2026-05-06 15:27 43.22436 5.82689 35918 ft 520 kts 64°
2026-05-06 15:28 43.24788 5.91983 35917 ft 514 kts 83°
2026-05-06 15:28 43.25717 6.01609 35898 ft 511 kts 88°
2026-05-06 15:29 43.26828 6.11278 35916 ft 514 kts 83°
2026-05-06 15:29 43.28145 6.20932 35867 ft 514 kts 83°
2026-05-06 15:30 43.29473 6.30604 35869 ft 514 kts 83°
2026-05-06 15:30 43.30783 6.40215 35876 ft 515 kts 83°
2026-05-06 15:31 43.32092 6.49899 35848 ft 514 kts 83°
2026-05-06 15:31 43.33396 6.59593 35873 ft 515 kts 83°
2026-05-06 15:32 43.35321 6.74061 35873 ft 515 kts 83°
2026-05-06 15:32 43.36601 6.83749 35863 ft 515 kts 83°
2026-05-06 15:33 43.38864 6.93154 35870 ft 522 kts 65°
2026-05-06 15:33 43.42941 7.01436 35863 ft 524 kts 50°
2026-05-06 15:34 43.47625 7.09071 35855 ft 524 kts 54°
2026-05-06 15:34 43.51919 7.17221 35844 ft 525 kts 55°
2026-05-06 15:35 43.56172 7.25411 35830 ft 524 kts 55°
2026-05-06 15:35 43.60415 7.33605 35839 ft 524 kts 55°
2026-05-06 15:36 43.64624 7.41754 35835 ft 523 kts 55°
2026-05-06 15:36 43.68844 7.49948 35837 ft 523 kts 55°
2026-05-06 15:37 43.73040 7.58115 35839 ft 522 kts 55°
2026-05-06 15:37 43.77238 7.66311 35836 ft 522 kts 56°
2026-05-06 15:38 43.81430 7.74533 35841 ft 522 kts 56°
2026-05-06 15:38 43.85608 7.82691 35832 ft 522 kts 56°
2026-05-06 15:39 43.89806 7.90921 35838 ft 521 kts 56°
2026-05-06 15:39 43.93988 7.99138 35844 ft 522 kts 56°
2026-05-06 15:40 43.98181 8.07408 35833 ft 523 kts 56°
2026-05-06 15:40 44.02337 8.15622 35843 ft 524 kts 56°
2026-05-06 15:41 44.06395 8.23993 35820 ft 521 kts 60°
2026-05-06 15:41 44.10177 8.32661 35841 ft 524 kts 60°
2026-05-06 15:42 44.13941 8.41402 35832 ft 526 kts 61°
2026-05-06 15:42 44.17685 8.50128 35846 ft 525 kts 61°
2026-05-06 15:43 44.21424 8.58865 35868 ft 525 kts 61°
2026-05-06 15:43 44.25098 8.67472 35549 ft 510 kts 61°
2026-05-06 15:44 44.26896 8.71694 35222 ft 502 kts 61°
2026-05-06 15:44 44.28670 8.75865 34839 ft 496 kts 61°
2026-05-06 15:44 44.30431 8.80014 34229 ft 497 kts 62°
2026-05-06 15:44 44.32141 8.84227 34047 ft 496 kts 64°
2026-05-06 15:45 44.34934 8.92991 33914 ft 492 kts 71°
2026-05-06 15:45 44.37522 9.01775 33882 ft 491 kts 72°
2026-05-06 15:46 44.40102 9.10592 33892 ft 489 kts 71°
2026-05-06 15:46 44.42675 9.19407 33864 ft 488 kts 72°
2026-05-06 15:47 44.45233 9.28202 33879 ft 487 kts 72°
2026-05-06 15:47 44.47778 9.36984 33877 ft 487 kts 72°
2026-05-06 15:48 44.50315 9.45756 33859 ft 487 kts 72°
2026-05-06 15:48 44.52847 9.54550 33873 ft 486 kts 72°
2026-05-06 15:49 44.55373 9.63356 33890 ft 487 kts 72°
2026-05-06 15:49 44.57876 9.72108 33896 ft 486 kts 73°
2026-05-06 15:50 44.60654 9.80789 33879 ft 492 kts 62°
2026-05-06 15:50 44.64138 9.89058 33866 ft 488 kts 71°
2026-05-06 15:51 44.65880 9.98140 33855 ft 475 kts 91°
2026-05-06 15:51 44.65584 10.07163 33875 ft 456 kts 110°
2026-05-06 15:52 44.64700 10.11378 33853 ft 445 kts 121°
2026-05-06 15:52 44.63366 10.15229 33872 ft 433 kts 130°
2026-05-06 15:52 44.60025 10.22193 33899 ft 428 kts 134°
2026-05-06 15:53 44.56659 10.29130 33889 ft 430 kts 133°
2026-05-06 15:53 44.53475 10.36203 33905 ft 434 kts 130°
2026-05-06 15:54 44.50699 10.43799 33923 ft 449 kts 118°
2026-05-06 15:54 44.49906 10.48090 33939 ft 460 kts 108°
2026-05-06 15:54 44.49493 10.52580 33935 ft 467 kts 102°
2026-05-06 15:55 44.49239 10.61662 33945 ft 470 kts 97°
2026-05-06 15:55 44.49268 10.70848 33946 ft 472 kts 94°
2026-05-06 15:56 44.49895 10.80069 33933 ft 475 kts 90°
2026-05-06 15:56 44.50624 10.89266 33914 ft 476 kts 90°
2026-05-06 15:57 44.50990 10.93880 33605 ft 474 kts 90°
2026-05-06 15:57 44.51351 10.98497 32512 ft 478 kts 90°
2026-05-06 15:57 44.51717 11.03169 31471 ft 480 kts 90°
2026-05-06 15:57 44.52075 11.07779 30425 ft 483 kts 89°
2026-05-06 15:58 44.52436 11.12471 29307 ft 486 kts 89°
2026-05-06 15:58 44.52799 11.17170 28497 ft 479 kts 89°
2026-05-06 15:58 44.53150 11.21773 27739 ft 472 kts 89°
2026-05-06 15:58 44.53597 11.26309 26959 ft 469 kts 82°
2026-05-06 15:59 44.54502 11.30708 26238 ft 466 kts 72°
2026-05-06 15:59 44.55849 11.34760 25547 ft 462 kts 62°
2026-05-06 15:59 44.57638 11.38490 24867 ft 457 kts 51°
2026-05-06 15:59 44.59742 11.41803 24228 ft 450 kts 49°
2026-05-06 16:00 44.61380 11.45505 23560 ft 443 kts 69°
2026-05-06 16:00 44.62107 11.49633 22810 ft 431 kts 89°
2026-05-06 16:00 44.61868 11.53738 22061 ft 415 kts 109°
2026-05-06 16:00 44.60743 11.57304 21325 ft 398 kts 130°
2026-05-06 16:01 44.58880 11.60034 20603 ft 381 kts 148°
2026-05-06 16:01 44.56842 11.62387 19865 ft 382 kts 137°
2026-05-06 16:01 44.55389 11.65544 19170 ft 392 kts 117°
2026-05-06 16:01 44.54906 11.67985 18811 ft 395 kts 101°
2026-05-06 16:02 44.55147 11.73046 17826 ft 400 kts 74°
2026-05-06 16:02 44.55902 11.75452 17358 ft 399 kts 60°
2026-05-06 16:02 44.57687 11.78390 16697 ft 394 kts 38°
2026-05-06 16:02 44.60008 11.80238 16005 ft 386 kts 16°
2026-05-06 16:03 44.62607 11.80824 15340 ft 375 kts 354°
2026-05-06 16:03 44.65155 11.80303 14698 ft 366 kts 344°
2026-05-06 16:03 44.67638 11.79537 14233 ft 358 kts 342°
2026-05-06 16:03 44.70071 11.78847 14098 ft 361 kts 350°
2026-05-06 16:04 44.72619 11.78850 13998 ft 370 kts
2026-05-06 16:04 44.75177 11.79320 13940 ft 372 kts
2026-05-06 16:04 44.77709 11.80062 13933 ft 372 kts 11°
2026-05-06 16:04 44.80231 11.80943 13864 ft 373 kts 12°
2026-05-06 16:05 44.82706 11.81871 13867 ft 373 kts 13°
2026-05-06 16:05 44.85168 11.83040 13880 ft 374 kts 19°
2026-05-06 16:05 44.87616 11.84324 13878 ft 374 kts 19°
2026-05-06 16:05 44.90054 11.85634 13888 ft 374 kts 19°
2026-05-06 16:06 44.92502 11.86957 13882 ft 374 kts 19°
2026-05-06 16:06 44.94930 11.88272 13862 ft 374 kts 19°
2026-05-06 16:06 44.97360 11.89588 13914 ft 374 kts 19°
2026-05-06 16:06 44.99802 11.90912 13873 ft 374 kts 19°
2026-05-06 16:07 45.02224 11.92224 13228 ft 372 kts 19°
2026-05-06 16:07 45.04604 11.93517 12595 ft 368 kts 19°
2026-05-06 16:07 45.06984 11.94810 11968 ft 364 kts 19°
2026-05-06 16:07 45.09334 11.96086 11377 ft 360 kts 19°
2026-05-06 16:08 45.11613 11.97390 11117 ft 346 kts 26°
2026-05-06 16:08 45.13469 11.99461 10783 ft 337 kts 51°
2026-05-06 16:08 45.14544 12.02324 10471 ft 324 kts 77°
2026-05-06 16:08 45.14815 12.05423 10137 ft 313 kts 91°
2026-05-06 16:09 45.14865 12.08453 9715 ft 309 kts 93°
2026-05-06 16:09 45.14863 12.11487 9250 ft 307 kts 94°
2026-05-06 16:09 45.14835 12.14498 8800 ft 304 kts 94°
2026-05-06 16:09 45.14801 12.17484 8356 ft 302 kts 93°
2026-05-06 16:10 45.15197 12.20400 7905 ft 305 kts 67°
2026-05-06 16:10 45.16444 12.22798 7466 ft 303 kts 39°
2026-05-06 16:10 45.18275 12.24152 7056 ft 296 kts 11°
2026-05-06 16:10 45.20289 12.24192 6627 ft 286 kts 342°
2026-05-06 16:11 45.21999 12.22941 6310 ft 271 kts 315°
2026-05-06 16:11 45.23353 12.21134 5908 ft 268 kts 313°
2026-05-06 16:11 45.24652 12.19351 5728 ft 257 kts 312°
2026-05-06 16:11 45.26001 12.17552 4961 ft 271 kts 315°
2026-05-06 16:12 45.27363 12.15806 4744 ft 262 kts 315°
2026-05-06 16:12 45.28739 12.14037 4077 ft 272 kts 315°
2026-05-06 16:12 45.30119 12.12265 3928 ft 261 kts 317°
2026-05-06 16:12 45.31710 12.10982 3357 ft 270 kts 341°
2026-05-06 16:13 45.33598 12.10857 2831 ft 276 kts 14°
2026-05-06 16:13 45.35224 12.12094 2667 ft 265 kts 43°
2026-05-06 16:13 45.36244 12.14264 2203 ft 263 kts 70°
2026-05-06 16:13 45.36773 12.16665 2142 ft 247 kts 76°
2026-05-06 16:14 45.37205 12.18921 1995 ft 230 kts 77°
2026-05-06 16:14 45.37630 12.21034 1774 ft 217 kts 75°
2026-05-06 16:14 45.38466 12.22793 1279 ft 221 kts 37°
2026-05-06 16:14 45.39827 12.23618 1096 ft 209 kts 11°
2026-05-06 16:15 45.41226 12.23896 993 ft 194 kts
2026-05-06 16:15 45.42414 12.24467 994 ft 168 kts 40°
2026-05-06 16:15 45.43180 12.25526 1016 ft 142 kts 49°
2026-05-06 16:15 45.43846 12.26520 900 ft 135 kts 48°
2026-05-06 16:16 45.44532 12.27441 840 ft 137 kts 43°
2026-05-06 16:16 45.45296 12.28286 765 ft 140 kts 42°
2026-05-06 16:16 45.45953 12.29236 571 ft 131 kts 49°
2026-05-06 16:16 45.46629 12.30174 516 ft 134 kts 44°
2026-05-06 16:17 45.47313 12.31044 356 ft 136 kts 46°
2026-05-06 16:17 45.48024 12.31941 321 ft 136 kts 46°
2026-05-06 16:17 45.48711 12.32850 225 ft 135 kts 46°
2026-05-06 16:17 45.49397 12.33750 50 ft 131 kts 45°
2026-05-06 16:18 45.50018 12.34558 13 ft 94 kts 41°
2026-05-06 16:18 45.50392 12.35038 10 ft 75 kts 43°
2026-05-06 16:18 45.50888 12.35670 15 ft 90 kts 41°
2026-05-06 16:18 45.51172 12.36036 12 ft 21 kts 40°
2026-05-06 16:19 45.51275 12.36017 12 ft 15 kts 315°
2026-05-06 16:19 45.51296 12.35984 12 ft 1 kts 310°
2026-05-06 16:19 45.51311 12.35959 12 ft 6 kts 309°
2026-05-06 16:20 45.51323 12.35892 13 ft 9 kts 257°
2026-05-06 16:20 45.51272 12.35809 11 ft 14 kts 221°
2026-05-06 16:20 45.51190 12.35705 13 ft 17 kts 222°
2026-05-06 16:20 45.51117 12.35610 13 ft 14 kts 222°
2026-05-06 16:21 45.51039 12.35510 15 ft 15 kts 221°
2026-05-06 16:21 45.50993 12.35423 17 ft 8 kts 247°
2026-05-06 16:21 45.50976 12.35335 20 ft 10 kts 257°
2026-05-06 16:21 45.50957 12.35221 17 ft 12 kts 251°
2026-05-06 16:22 45.50906 12.35140 18 ft 12 kts 221°
2026-05-06 16:22 45.50854 12.35073 17 ft 9 kts 222°
2026-05-06 16:22 45.50792 12.34994 15 ft 14 kts 221°
2026-05-06 16:22 45.50748 12.34937 14 ft 9 kts 222°
2026-05-06 16:23 45.50694 12.34868 15 ft 12 kts 222°
2026-05-06 16:23 45.50657 12.34820 14 ft 1 kts 222°
2026-05-06 16:23 45.50640 12.34797 14 ft 6 kts 222°
2026-05-06 16:23 45.50601 12.34747 14 ft 9 kts 222°
2026-05-06 16:24 45.50551 12.34682 15 ft 10 kts 222°
2026-05-06 16:24 45.50504 12.34620 17 ft 0 kts 222°
2026-05-06 16:24 45.50503 12.34619 17 ft 1 kts 222°
2026-05-06 16:24 45.50495 12.34609 17 ft 3 kts 222°
2026-05-06 16:25 45.50490 12.34602 17 ft 0 kts 222°
2026-05-06 16:25 45.50479 12.34589 17 ft 6 kts 222°